Location: Brede
(50.9167°N, 0.6000°E)
Time: 00:20:07
(UTC+00:00)

ADEOS II - Pass Details

Date: 08 August 2020
Orbit: 799 x 802 km, 98.5° (Epoch: 19 September)

Event Time Altitude Azimuth Distance (km) Brightness Sun altitude
Rises 01:50:27 0° 19° (NNE) 3,323 6.9 -19.0°
Reaches altitude 10° 01:52:55 10° 27° (NNE) 2,388 5.8 -18.9°
Maximum altitude 01:57:55 42° 98° (E) 1,135 3.0 -18.5°
Enters shadow 02:01:26 18° 161° (SSE) 1,864 3.6 -18.2°
